Regional Weather Roundup
Issued by NWS

Home | Current Version | Previous Version | Text Only | Print | Product List | Glossary Off
Versions: 1 2 3 4 5 6 7 8 9 10 11 12 13 14 15 16 17 18 19 20 21 22 23 24 25 26 27 28 29 30 31 32 33 34 35 36 37 38 39 40 41 42 43 44 45 46 47 48 49 50

000
ASUS43 KIND 251559
RWRIN

WEATHER ROUNDUP FOR INDIANA
NATIONAL WEATHER SERVICE INDIANAPOLIS IN
1200 PM EDT SAT APR 25 2015

NOTE: "FAIR" INDICATES FEW OR NO CLOUDS BELOW 12,000 FEET WITH NO
SIGNIFICANT WEATHER AND/OR OBSTRUCTIONS TO VISIBILITY.

* - STATION DOES NOT REPORT WEATHER SUCH AS PRECIPITATION OR FOG.

+ - STATION NOT QUALITY CONTROLLED BY THE NATIONAL WEATHER SERVICE.
    USE DATA WITH CAUTION...ESPECIALLY DEWPOINT AND RELATIVE
    HUMIDITY OBSERVATIONS.

INZ001>003-010>013-019-020-251700-
NORTHWEST INDIANA

CITY           SKY/WX    TMP DP  RH WIND       PRES   REMARKS
GARY /AIRPORT/ LGT RAIN  46  39  76 E12G23    29.75F
KNOX *+        CLOUDY    45  36  70 E17       29.73F

$$

LMZ046-743>745-251700-
SOUTHERN LAKE MICHIGAN

STATION/POSITION TIME  TEMP    WIND        PRES    WAVE
                       AIR SEA DIR/SP/G            HT
                 (UTC) (F)     (DEG/KT/KT) (MB)    (FT)
BURNS HARBOR     1500   44      90/ 11/ 16 1008.1F
MICHIGAN CITY    1500   43      80/ 18/ 24   N/A
5NW MICH CITY    1500   43 44  120/ 16/ 19   N/A     2

$$

INZ004-005-014>016-021>024-251700-
NORTH CENTRAL INDIANA

CITY           SKY/WX    TMP DP  RH WIND       PRES   REMARKS
ELKHART        LGT RAIN  45  39  81 E12       29.80F
GOSHEN         LGT RAIN  45  40  82 E13       29.80F
SOUTH BEND     RAIN      45  39  79 E13       29.79F
WARSAW +       CLOUDY    45  37  76 E14G21    29.78S

$$

INZ006>009-017-018-025>027-251700-
NORTHEAST INDIANA

CITY           SKY/WX    TMP DP  RH WIND       PRES   REMARKS
ANGOLA *+      PTSUNNY   43  39  87 E16       29.81F
FORT WAYNE     LGT RAIN  45  39  79 E16       29.78F

$$

INZ028-029-035-036-043>045-051>053-251700-
WEST CENTRAL INDIANA

CITY           SKY/WX    TMP DP  RH WIND       PRES   REMARKS
CRAWFORDSVL +  CLOUDY    46  41  84 E13       29.66F
GREENCASTLE +  CLOUDY    46  43  87 E9        29.65F FOG
LAFAYETTE      HVY RAIN  44  43  96 E21G30    29.66F FOG
TERRE HAUTE    RAIN      50  48  93 E9        29.63F FOG

$$

INZ030>032-037>040-046>048-054>057-064-065-251700-
CENTRAL INDIANA

CITY           SKY/WX    TMP DP  RH WIND       PRES   REMARKS
ANDERSON       RAIN      48  36  61 E14G24    29.71F
FRANKFORT +    CLOUDY    46  46 100 E18       29.70S
GREENWOOD *+   CLOUDY    46  43  87 E9        29.69S
INDIANAPOLIS   LGT RAIN  48  44  86 E13       29.66F FOG
-EAGLE CREEK   LGT RAIN  48  43  82 E13       29.68S
KOKOMO *+      CLOUDY    45  39  81 E13       29.73S
MT COMFORT *+  CLOUDY    46  39  76 E16       29.69F
SHELBYVILLE    LGT RAIN  49  44  83 E13       29.69S

$$

INZ033-034-041-042-049-050-058-059-251700-
EAST CENTRAL INDIANA

CITY           SKY/WX    TMP DP  RH WIND       PRES   REMARKS
MUNCIE         LGT RAIN  46  38  73 E22G28    29.73F

$$

INZ060-061-067>069-081>083-085>088-251700-
SOUTHWEST INDIANA

CITY           SKY/WX    TMP DP  RH WIND       PRES   REMARKS
EVANSVILLE     CLOUDY    59  55  87 SE7       29.59F FOG
HUNTINGBURG *+ CLOUDY    54  52  94 SE13      29.60F

$$

INZ062-063-066-070>080-084-089>092-251700-
SOUTH CENTRAL AND SOUTHEAST INDIANA

CITY           SKY/WX    TMP DP  RH WIND       PRES   REMARKS
BLOOMINGTON    LGT RAIN  50  48  93 SE14G22   29.63F FOG
MADISON *+     CLOUDY    50  45  81 E12       29.68F
SEYMOUR +      CLOUDY    50  50 100 E10       29.67F

$$



USA.gov is the U.S. government's official web portal to all federal, state and local government web resources and services.